This is the latest recevied weather packets stored in our database for station/object K5NAN. If no packets are shown the sender has not sent any weather packets the latest 10 day(s).
| Time | Temp. | Humidity | Pressure | Rain* | Wind** | Luminosity | Snow |
|---|---|---|---|---|---|---|---|
| 1778110216 | 13.89° C | 87% | 1012.8 hPa | 0 mm | - | 58 W/m² | - |
| 1778109911 | 13.89° C | 87% | 1012.8 hPa | 0 mm | - | 51 W/m² | - |
| 1778109607 | 13.89° C | 87% | 1012.7 hPa | 0 mm | - | 74 W/m² | - |
| 1778109305 | 13.89° C | 87% | 1012.6 hPa | 0 mm | - | 63 W/m² | - |
| 1778109002 | 13.33° C | 87% | 1012.6 hPa | 0 mm | - | 80 W/m² | - |
| 1778108698 | 13.33° C | 87% | 1012.7 hPa | 0 mm | - | 74 W/m² | - |
| 1778108395 | 13.89° C | 87% | 1012.7 hPa | 0 mm | - | 70 W/m² | - |
| 1778108093 | 13.89° C | 87% | 1012.9 hPa | 0 mm | - | 50 W/m² | - |
| 1778107789 | 13.89° C | 87% | 1013.1 hPa | 0 mm | - | 62 W/m² | - |
| 1778107486 | 13.89° C | 87% | 1013 hPa | 0 mm | - | 89 W/m² | - |
| 1778107183 | 13.33° C | 87% | 1012.9 hPa | 0 mm | - | 81 W/m² | - |
| 1778106878 | 13.33° C | 87% | 1012.6 hPa | 0 mm | - | 77 W/m² | - |
| 1778106576 | 13.33° C | 87% | 1012.9 hPa | 0 mm | - | 73 W/m² | - |
| 1778106272 | 13.33° C | 87% | 1012.8 hPa | 0 mm | - | 69 W/m² | - |
| 1778105969 | 13.33° C | 87% | 1012.6 hPa | 0 mm | - | 81 W/m² | - |
| 1778105666 | 13.33° C | 87% | 1012.6 hPa | 0 mm | - | 77 W/m² | - |
| 1778105364 | 13.33° C | 87% | 1012.6 hPa | 0 mm | - | 65 W/m² | - |
| 1778105059 | 13.33° C | 87% | 1012.1 hPa | 0 mm | - | 74 W/m² | - |
| 1778104756 | 13.33° C | 86% | 1012.3 hPa | 0 mm | - | 73 W/m² | - |
| 1778104452 | 13.89° C | 86% | 1012.4 hPa | 0 mm | - | 83 W/m² | - |
| 1778104148 | 13.89° C | 86% | 1012.1 hPa | 0 mm | - | 95 W/m² | - |
| 1778103845 | 13.89° C | 85% | 1012.2 hPa | 0 mm | - | 112 W/m² | - |
| 1778103543 | 13.89° C | 85% | 1012.4 hPa | 0 mm | - | 146 W/m² | - |
| 1778103240 | 13.89° C | 85% | 1012.3 hPa | 0 mm | - | 130 W/m² | - |
| 1778102938 | 13.89° C | 86% | 1012.5 hPa | 0 mm | - | 113 W/m² | - |
* Rain latest hour (hover to see other rain measurements)
** Current wind speed in m/s (hover to see current wind gust speed)